BEIDOU 3G2Q

Last updated on Mon Apr 22 2019 01:02:04 GMT+0100 (British Summer Time)

1 44204U 19023A 19110.85909737 -.00001292 13514-5 00000+0 0 9992 2 44204 28.4727 65.8375 7303417 179.7932 189.7510 2.28217424 06
UTC large
Height (km)
Speed (km/s)
/
Latitude / Longitude
Inclination (degrees)
Orbital Period (minutes)
Azimuth
Elevation
Range (km)
Doppler Factor

Next 0 passes for location: London (51.5072 / 0.1276)

Sorry there are no passes over London.